[Date Prev][Date Next][Thread Prev][Thread Next] - [Date Index][Thread Index][Author Index]
2 Line ISS Keps 10-8
- Subject: [sarex] 2 Line ISS Keps 10-8
- From: "Scott Avery WA6LIE" <wa6lie@xxxxxxx>
- Date: Fri, 8 Oct 2004 05:10:37 -0700
- Seal-Send-Time: Fri, 8 Oct 2004 05:10:38 -0700
ISS
1 25544U 98067A 04282.16828704 .00016124 00000-0 14233-3 0 8609
2 25544 51.6350 109.2069 0009532 198.9921 318.1346 15.68818466336064
----
Via the sarex mailing list at AMSAT.ORG courtesy of AMSAT-NA.
To unsubscribe, send "unsubscribe sarex" to Majordomo@amsat.org
AMSAT Home